Flag for Mexico Weather past 2 weeks in Playa del Carmen, Quintana Roo, Mexico

Now
73 °F

Passing clouds.


Feels Like: 68 °F
Forecast: 82 / 85 °F
Wind: No wind

Location: Cozumel Civ / Mil

Current Time: Sep 21, 2014 at 5:07:41 AM

Latest Report: Sep 21, 2014 at 4:42 AM


Visibility: 7 mi

Pressure: 29.88 "Hg

Humidity: 100%

Dew point: 73 °F

Location of Playa del CarmenLocation

Historic Weather in Playa del Carmen — Graph

°F

Playa del Carmen temperature yesterday

Maximum temperature yesterday: 82 °F (at 12:45 PM)
Minimum temperature yesterday: 73 °F (at 12:00 AM)
Average temperature yesterday: 75 °F

Past Weeks' High & Low Weather Summary

 TemperatureHumidityPressure
High86 °F (Sep 8, 1:43 PM)100% (Sep 6, 4:04 AM)30.07 "Hg (Sep 6, 4:04 AM)
Low68 °F (Sep 18, 5:53 AM)66% (Sep 8, 1:43 PM)29.85 "Hg (Sep 10, 6:54 PM)
Average77 °F93%29.94 "Hg
* Reported Sep 6 4:04 AM — Sep 21 3:15 AM, Playa del Carmen, Weather by CustomWeather, © 2014

Note: Actual official high and low records may vary slightly from our data, if they occured in-between our weather recording intervals... More about our weather records

Advertising

Playa del Carmen weather history for previous 24 hours

 ConditionsComfort  
Time TempWeatherWind HumidityBarometerVisibility
3:15 AM
Sep 21
73 °FPassing clouds.No wind100%29.88 "Hg7 mi
1:26 AM73 °FPassing clouds.No wind100%29.87 "Hg7 mi
11:45 PM
Sep 20
73 °FPassing clouds.No wind100%29.92 "Hg7 mi
10:45 PM73 °FPassing clouds.No wind100%29.93 "Hg7 mi
9:50 PM73 °FPassing clouds.3 mph100%29.96 "Hg7 mi
8:50 PM73 °FPartly cloudy.No wind100%29.92 "Hg7 mi
7:47 PM75 °FPartly cloudy.No wind100%29.89 "Hg7 mi
6:46 PM77 °FMore clouds than sun.5 mph100%29.85 "Hg7 mi
5:46 PM79 °FPartly sunny.3 mph94%29.87 "Hg7 mi
4:44 PM79 °FOvercast.No wind94%29.87 "Hg7 mi
2:46 PM79 °FBroken clouds.6 mph94%29.87 "Hg6 mi
1:43 PM77 °FBroken clouds.6 mph100%29.88 "Hg7 mi
12:45 PM82 °FPartly sunny.8 mph84%29.88 "Hg7 mi
7:46 AM73 °FBroken clouds.5 mph100%29.90 "Hg7 mi
6:50 AM73 °FPartly cloudy.5 mph100%29.88 "Hg7 mi
5:52 AM73 °FPassing clouds.No wind100%29.89 "Hg7 mi
Weather by CustomWeather, © 2014

See weather overviewHow to use our weather pages